Location: *
(46.1200°N, 11.2700°E)
Time: 17:57:12
(UTC+00:00)

Daily predictions for brighter satellites

Satellite Brightness Start Highest point End
(mag) Time Altitude Azimuth Time Altitude Azimuth Time Altitude Azimuth
CZ-2D R/B 3.3 17:26:35 10° S 17:30:22 83° WSW 17:34:12 10° NNW
Cosmos 1461 3.2 17:25:49 10° SSW 17:30:31 72° ESE 17:35:16 10° NE
FALCON 9 DEB 4.3 17:28:22 10° NW 17:31:27 29° NNE 17:34:30 10° ENE
COSMO-SKYMED 1 2.6 17:27:37 10° NNE 17:32:00 87° ESE 17:36:20 10° SSW
Cosmos 1980 Rocket 3.0 17:26:47 10° SW 17:32:21 56° WNW 17:37:59 10° NNE
Cosmos 2184 Rocket 4.0 17:29:38 10° S 17:35:39 60° E 17:41:45 10° NNE
Helios 1A Rocket 3.6 17:36:51 10° SE 17:40:31 34° ENE 17:44:11 10° N
Abrixas rocket 1.4 17:38:10 10° WSW 17:40:40 86° NNW 17:43:03 11° ENE
HJ-1C 4.0 17:39:43 10° SE 17:42:45 34° ENE 17:45:48 10° N
Cosmos 2322 Rocket 2.4 17:40:23 10° S 17:45:43 47° ESE 17:51:05 10° NE
Meteor 1-25 Rocket 4.3 17:40:06 10° S 17:45:48 66° E 17:51:28 10° NNE
Cosmos 1633 Rocket 3.1 17:41:56 10° S 17:46:17 60° E 17:50:39 10° NNE
Cosmos 44 Rocket 3.6 17:41:25 10° NNW 17:46:37 59° NE 17:51:44 10° SE
Cosmos 1707 Rocket 3.6 17:42:32 10° N 17:46:57 86° W 17:51:18 10° S
MOS 1 Rocket 4.2 17:45:14 10° N 17:50:09 59° WNW 17:55:20 10° SSW
Okean 1-7 4.3 17:47:46 10° NNE 17:51:04 20° ENE 17:54:19 10° ESE
CZ-2C R/B 4.1 17:47:38 10° S 17:53:17 57° W 17:58:46 10° NNW
CZ-4B R/B 2.3 17:51:25 10° N 17:54:22 47° WNW 17:57:19 10° SSW
SJ-6B 4.4 17:52:51 12° E 17:55:02 18° ENE 17:57:47 10° NNE
Meteor 1-18 Rocket 4.3 17:55:36 10° N 18:01:32 66° ENE 18:07:23 10° SSE
Okean-O 2.7 17:59:56 10° SSE 18:04:22 85° WSW 18:08:50 10° NNW
Cosmos 2219 Rocket 3.7 18:02:02 10° SE 18:04:10 14° ESE 18:04:10 14° ESE
Okean 1 3.2 18:01:55 10° N 18:05:57 74° E 18:09:59 10° SSE
CZ-4 R/B 1.9 18:03:51 10° S 18:07:38 60° WSW 18:11:31 10° NNW
Cosmos 2341 Rocket 4.4 18:03:17 10° SSE 18:09:03 39° E 18:14:49 10° NNE
SL-16 R/B 2.2 18:03:48 10° SSW 18:09:28 89° ESE 18:15:12 10° NNE
USA 305 4.3 18:05:56 10° WNW 18:09:47 31° N 18:13:16 12° NE
Cosmos 2263 Rocket 3.5 18:06:58 10° NW 18:12:10 41° WSW 18:17:21 10° S
ERBS 3.5 18:10:57 10° WSW 18:14:05 37° NNW 18:17:00 11° NE
ARGOS 3.2 18:09:41 10° SSE 18:15:07 90° S 18:20:36 10° NNW
Cosmos 1515 3.8 18:13:22 10° NNW 18:17:12 78° W 18:21:00 10° S
Gbstr 26 Del rocket 4.0 18:14:39 10° W 18:18:58 48° N 18:23:00 16° ENE
USA 307 4.3 18:16:48 10° WNW 18:20:37 30° N 18:23:39 14° NE
ATLAS CENTAUR R/B 1.4 18:18:33 10° S 18:21:57 40° ESE 18:23:28 26° ENE
Cosmos 2084 Rocket 3.4 18:18:32 10° NW 18:22:53 81° NE 18:26:12 18° SE
SL-4 R/B 2.7 18:20:21 10° WNW 18:23:37 34° N 18:25:02 24° NE
Cosmos 1470 Rocket 3.5 18:19:58 10° S 18:24:26 87° ESE 18:28:56 10° N
USA 306 4.4 18:20:43 10° WNW 18:24:30 29° N 18:27:19 15° NE
SL-08 RB Rocket 3.6 18:20:32 10° SSE 18:25:01 82° ENE 18:29:37 10° NNW
Cosmos 2237 4.2 18:21:07 10° SSW 18:26:47 67° ESE 18:32:30 10° NNE
CZ-2C R/B 2.6 18:21:21 10° NNE 18:26:53 74° ESE 18:32:14 10° S
Cosmos 1689 Rocket 3.0 18:25:17 10° N 18:28:05 49° WNW 18:30:52 10° SSW
USA 308 4.4 18:27:28 10° WNW 18:31:14 29° N 18:33:47 17° NE
Cosmos 1992 Rocket 4.0 18:28:04 10° SSW 18:33:18 86° WNW 18:38:35 10° NNE
Okean 3 4.5 18:31:10 10° NNE 18:34:27 27° ENE 18:34:27 27° ENE
ASTEX 1 4.0 18:30:50 10° NNE 18:35:13 32° E 18:36:25 28° ESE
SAR-Lupe-4 4.3 18:32:15 10° N 18:35:46 54° WNW 18:39:15 10° SSW
Cosmos 1703 Rocket 3.5 18:32:38 10° N 18:37:00 60° ENE 18:40:23 16° SSE
H-2A R/B 3.5 18:33:51 10° SSW 18:38:58 41° W 18:44:07 10° NNW
DMSP B5D2-2 4.0 18:36:43 10° NNE 18:41:56 66° ESE 18:47:06 10° S
USA 234 3.2 18:36:59 15° ENE 18:42:27 65° SE 18:48:56 10° SW
SeaSat 1 2.6 18:40:08 10° NNE 18:45:04 73° WNW 18:49:59 10° SW
Cosmos 1933 Rocket 3.5 18:41:07 10° S 18:45:27 85° W 18:49:53 10° N
CSL-04 Rocket 4.2 18:40:28 10° S 18:45:58 63° WSW 18:51:28 10° NNW
OBJECT-B 2.0 18:47:22 29° NNE 18:47:22 29° NNE 18:49:16 10° N
Aureole 2 Rocket 2.9 18:44:19 10° NW 18:46:44 39° WSW 18:47:11 35° SW
Cosmos 1844 Rocket 2.6 18:42:17 10° NNW 18:47:54 85° ENE 18:51:49 20° SSE
Resurs 01 Rocket 3.2 18:49:22 20° NE 18:49:22 20° NE 18:51:33 10° NNE
ERS-2 3.8 18:45:53 10° N 18:49:15 35° WNW 18:52:35 10° SW
Meteor 1-5 Rocket 4.0 18:44:09 10° S 18:49:28 73° E 18:54:58 10° NNE
Cosmos 2242 Rocket 3.5 18:45:39 10° N 18:50:11 88° W 18:54:39 10° S
Cosmos 1666 2.5 18:47:23 10° S 18:51:03 63° E 18:54:45 10° NNE
Cosmos 2333 4.3 18:46:11 10° S 18:51:35 49° ESE 18:57:04 10° NE
Cosmos 1959 Rocket 4.5 18:48:08 10° SSE 18:54:00 53° E 18:59:56 10° NNE
Cosmos 1844 3.6 18:50:40 10° NNW 18:56:28 83° ENE 18:59:37 28° SSE
Cosmos 2360 Rocket 2.2 18:54:37 10° SSW 19:00:16 82° WNW 19:06:00 10° NNE
Cosmos 1354 Rocket 4.4 18:57:00 10° NNW 19:02:12 64° WSW 19:06:39 14° S
Cosmos 2278 Rocket 3.3 18:57:43 10° N 19:02:27 26° NE 19:02:28 26° NE
Meteor 2-4 Rocket 4.2 18:59:34 10° NNW 19:05:20 64° W 19:11:10 10° S
GP-B 3.9 19:02:05 10° SSW 19:06:25 52° W 19:10:46 10° N
Cosmos 2333 Rocket 2.3 19:01:27 10° S 19:06:56 52° ESE 19:08:25 41° ENE
SPOT 3 Rocket 4.1 19:08:58 39° NE 19:08:58 39° NE 19:13:23 10° N
FALCON 9 DEB 3.6 19:05:15 10° WNW 19:08:06 59° WNW 19:08:06 59° WNW
Cosmos 1241 Rocket 4.5 19:03:06 10° NNW 19:09:44 71° NE 19:11:50 45° ESE
Cosmos 1777 Rocket 3.9 19:07:43 10° NNW 19:13:00 74° ENE 19:13:54 59° SE
Resurs 1-3 3.8 19:17:59 57° NNE 19:17:59 57° NNE 19:21:41 10° N
Ariane Rocket 3.0 19:19:27 44° S 19:21:09 84° WSW 19:26:17 10° NNW
Cosmos 1943 Rocket 4.5 19:24:30 10° NNE 19:25:32 11° NNE 19:25:32 11° NNE
SJ 16-02 3.0 19:22:22 10° N 19:24:29 24° NNE 19:24:29 24° NNE
Okean 1-7 4.2 19:24:42 10° NNW 19:28:49 41° W 19:31:28 19° SSW
SJ-6B 3.8 19:28:28 40° SW 19:29:20 47° W 19:33:17 10° NNW
Cosmos 2322 Rocket 3.9 19:25:00 10° WSW 19:29:57 31° NW 19:34:57 10° N
MOS 1 4.4 19:27:32 34° S 19:30:09 74° WSW 19:35:52 10° NNW
SL-8 Rocket 4.3 19:28:14 10° SSW 19:34:25 65° W 19:40:36 10° N
COSMOS 2428 4.4 19:31:07 10° SSW 19:32:47 20° S 19:32:47 20° S
Meteor 1-11 Rocket 3.7 19:31:06 10° SSW 19:36:51 81° W 19:42:30 10° N
Meteor 1-23 Rocket 4.1 19:32:57 10° N 19:38:06 71° NE 19:38:06 71° NE
SME Rocket 4.5 19:30:20 10° NNE 19:38:52 71° WNW 19:44:19 10° SSW
Cosmos 1869 Rocket 4.2 19:39:35 54° WNW 19:39:35 54° WNW 19:43:55 10° N
SL-08 R/B 4.4 19:46:55 77° SE 19:47:19 81° E 19:53:49 10° N
Cosmos 2219 Rocket 2.8 19:42:28 10° SSW 19:46:09 44° SSW 19:46:09 44° SSW
Cosmos 2366 rocket 4.4 19:42:34 10° SSW 19:48:49 63° WNW 19:55:09 10° N
ATLAS CENTAUR R/B 3.8 19:58:03 10° W 19:59:42 19° WNW 19:59:42 19° WNW
Cosmos 2322 4.3 19:59:28 10° SW 20:05:04 54° WNW 20:10:42 10° NNE
Gbstr 26 Del rocket 4.4 20:01:46 10° WNW 20:05:31 44° NNW 20:05:31 44° NNW
Cosmos 1727 Rocket 4.4 20:03:56 10° NNW 20:09:59 58° W 20:10:41 55° WSW
Resurs 01 Rocket 4.0 20:26:55 21° NW 20:26:55 21° NW 20:28:32 10° NNW
USA 234 3.8 20:24:20 48° N 20:25:23 52° NNW 20:31:41 10° W
Cosmos 2278 Rocket 3.8 20:41:21 10° NNW 20:44:20 31° NW 20:44:20 31° NW
Cosmos 2333 Rocket 3.9 20:46:32 10° WSW 20:56:43 - NNE 20:50:49 29° WNW
